星链-31031 (STARLINK-31031 )

导读

STARLINK-31031是美国太空探索技术公司Starlink星链互联网卫星星座的一员,于北京时间2024年1月3日8点发射。作为星链低轨互联网星座的组成部分,它将为全球提供高速低延迟卫星互联网服务,助力偏远地区网络覆盖,同时拓展天基通信应用场景,服务全球多地的通信、导航等多元需求。

基本信息
目录编号:
58711
目录名称:
STARLINK-31031
国际标识:
2024-002G
轨道中心:
EARTH
卫星名称:
星链-31031
卫星全名:
星链-31031 (STARLINK-31031 )
卫星状态:
在轨 (已飞行982 天)
发射日期:
2024-01-03 UTC
国别 :
美国 (US)
星等 :
--
该卫星已列入 空间交会检测服务 Space Conjunction Data Service (SCDS) ,当前飞行风险评估等级: 无高风险
轨道信息
数据来源 国际轨道数据 AOE轨道数据
星历时间 2026-09-11T01:30:00+0800
1天前
查看轨道信息
2026-09-10T18:00:00+0800
1天前
查看轨道信息
半长轴 6840.848km 6840.881km
偏心率 0.0001437 0.0001306
轨道倾角 53.161° 53.161°
近地点辐角 96.058° 86.391°
升交点赤经 87.054° 88.518°
平近点角 264.059° 346.560°
近地点 461.727km 461.85km
远地点 463.695km 463.638km
周期 93.848分钟 93.849分钟
每日圈数 15.343974 15.343863
详细信息
固有亮度:
5
最大亮度:
0.3
卫星平台:
Starlink v2.0 mini
覆盖范围:
全球
运营商:
太空探索技术公司
运营商所在国:
美国
制造商(研发单位):
太空探索技术公司
制造商所在国:
美国
使用方式:
暂无
卫星简介
星链(Starlink)计划是由太空探索技术公司(SpaceX)提出的一个巨型低轨卫星互联网星座项目,计划在2019年至2024年间在太空搭建由约1.2万颗卫星组成的“星链”网络,其中1584颗将部署在地球上空550千米处的近地轨道,并从2020年开始工作。该卫星仍在工作。
2D轨道图
3D轨道图
轨道高度分析图
轨道倾角分析图
轨道综合分析图
查看轨道综合分析图
与全量物体交会距离演化趋势
与全量物体交会风险概率演化趋势